Total_Precipitation_Accumulation
0.89 1.14 1.01 0.69 0.69 0.61 0.50 0.51 0.40 0.23 0.20 0.36 0.36 0.26 0.22 0.21 0.23 0.25 0.26 0.33 0.33 0.36 0.44 0.50 0.64 0.77 0.89 1.01 1.18 1.37 1.53 1.69 1.91 2.07 2.14 2.12 2.07 1.93 1.86 1.81 1.76 1.75 1.78 1.83
0.98 0.88 0.47 0.36 0.45 0.54 0.58 0.65 0.50 0.34 0.25 0.39 0.38 0.28 0.23 0.22 0.24 0.27 0.27 0.34 0.35 0.36 0.44 0.49 0.59 0.75 0.84 0.92 1.05 1.27 1.48 1.61 1.79 1.95 1.97 2.07 2.05 1.98 1.88 1.81 1.78 1.72 1.73 1.83
0.77 0.50 0.32 0.41 0.55 0.69 0.63 0.58 0.50 0.47 0.41 0.44 0.50 0.44 0.24 0.21 0.20 0.24 0.26 0.31 0.33 0.38 0.41 0.43 0.54 0.69 0.81 0.86 0.97 1.15 1.39 1.56 1.68 1.91 2.18 2.36 2.43 2.27 2.12 1.95 1.82 1.71 1.69 1.72
0.57 0.34 0.37 0.50 0.58 0.68 0.68 0.38 0.42 0.52 0.78 0.83 0.67 0.77 0.30 0.21 0.18 0.22 0.26 0.28 0.29 0.34 0.36 0.39 0.48 0.62 0.74 0.83 0.99 1.15 1.24 1.47 1.69 1.83 2.10 2.34 2.45 2.29 1.97 1.86 1.83 1.79 1.73 1.73
0.70 0.38 0.44 0.51 0.44 0.52 0.56 0.40 0.46 0.60 0.92 1.07 0.71 0.82 0.37 0.22 0.23 0.21 0.25 0.27 0.28 0.32 0.36 0.37 0.43 0.54 0.66 0.83 0.99 1.16 1.25 1.42 1.68 1.85 1.97 2.25 2.42 2.32 2.15 2.03 1.91 1.81 1.79 1.78
0.55 0.40 0.49 0.41 0.32 0.43 0.55 0.66 0.77 0.90 1.46 1.76 0.65 0.64 0.44 0.32 0.33 0.26 0.27 0.30 0.31 0.35 0.41 0.39 0.43 0.53 0.61 0.81 0.93 1.13 1.28 1.35 1.59 1.82 1.97 2.11 2.34 2.46 2.36 2.21 2.11 1.95 1.87 1.82
0.71 0.53 0.51 0.44 0.55 0.62 0.89 1.49 2.19 2.38 2.42 1.46 0.36 0.46 0.50 0.33 0.29 0.34 0.38 0.39 0.38 0.39 0.43 0.45 0.46 0.54 0.57 0.75 0.88 1.06 1.28 1.30 1.41 1.61 1.82 2.01 2.20 2.39 2.49 2.34 2.14 2.04 2.01 1.93
0.89 0.72 0.56 0.55 0.68 0.83 0.92 1.32 1.77 1.65 1.10 0.54 0.32 0.45 0.43 0.33 0.30 0.30 0.34 0.37 0.35 0.37 0.42 0.47 0.50 0.53 0.56 0.63 0.75 0.93 1.17 1.26 1.28 1.40 1.57 1.86 2.13 2.32 2.42 2.45 2.24 2.08 1.98 1.88
1.02 0.67 0.39 0.39 0.42 0.56 0.88 0.97 0.89 1.23 0.89 0.58 0.47 0.41 0.32 0.22 0.20 0.22 0.28 0.33 0.35 0.39 0.43 0.49 0.58 0.59 0.61 0.63 0.68 0.83 1.08 1.21 1.20 1.30 1.41 1.60 1.88 2.16 2.31 2.35 2.34 2.21 2.07 1.94
1.20 0.91 0.46 0.43 0.53 0.61 0.71 0.87 1.01 1.56 1.41 0.86 0.52 0.38 0.46 0.35 0.28 0.24 0.27 0.35 0.39 0.41 0.46 0.51 0.61 0.66 0.67 0.65 0.69 0.81 0.98 1.20 1.24 1.25 1.33 1.44 1.60 1.85 2.09 2.28 2.39 2.24 2.15 2.07
1.08 1.19 0.78 0.69 0.91 0.93 0.82 1.07 1.30 1.33 1.09 0.94 0.71 0.58 0.61 0.50 0.42 0.37 0.33 0.36 0.42 0.44 0.50 0.55 0.62 0.68 0.71 0.70 0.72 0.83 0.95 1.12 1.31 1.34 1.32 1.42 1.53 1.73 1.90 1.99 2.15 2.26 2.25 2.16
1.03 1.32 1.01 0.70 0.63 0.64 0.82 0.97 1.14 1.39 1.06 0.67 0.70 0.65 0.52 0.43 0.40 0.39 0.36 0.35 0.41 0.49 0.56 0.59 0.62 0.64 0.68 0.73 0.76 0.79 0.94 1.09 1.23 1.37 1.40 1.42 1.53 1.73 1.86 1.84 1.86 1.98 2.18 2.19
1.53 1.77 1.43 1.07 0.95 0.84 1.01 0.91 0.91 1.05 1.00 0.77 0.69 0.54 0.38 0.33 0.33 0.34 0.35 0.36 0.41 0.47 0.54 0.58 0.56 0.59 0.69 0.72 0.77 0.77 0.85 1.02 1.18 1.33 1.43 1.42 1.53 1.64 1.71 1.74 1.75 1.75 1.90 2.08
1.73 1.76 1.33 1.21 1.10 1.01 0.98 0.79 0.75 1.07 1.26 0.76 0.49 0.40 0.34 0.33 0.35 0.35 0.37 0.38 0.41 0.44 0.49 0.55 0.60 0.62 0.71 0.75 0.74 0.77 0.84 0.97 1.18 1.34 1.48 1.45 1.53 1.64 1.65 1.65 1.68 1.65 1.72 1.89
1.38 1.39 0.71 0.48 0.42 0.53 0.60 0.56 0.60 0.82 0.80 0.71 0.47 0.39 0.42 0.45 0.49 0.48 0.46 0.42 0.39 0.43 0.47 0.52 0.63 0.73 0.74 0.76 0.75 0.81 0.91 0.96 1.13 1.34 1.53 1.54 1.52 1.58 1.62 1.61 1.69 1.70 1.73 1.80
1.14 1.16 0.62 0.39 0.28 0.37 0.45 0.39 0.44 0.50 0.52 0.49 0.39 0.43 0.40 0.41 0.39 0.42 0.44 0.44 0.45 0.47 0.51 0.50 0.57 0.68 0.75 0.78 0.78 0.83 0.94 0.98 1.06 1.23 1.41 1.52 1.51 1.55 1.58 1.55 1.63 1.69 1.72 1.74
1.09 1.10 0.97 0.57 0.29 0.53 0.72 0.53 0.50 0.51 0.52 0.52 0.53 0.50 0.40 0.39 0.40 0.46 0.49 0.51 0.54 0.56 0.56 0.54 0.60 0.66 0.73 0.79 0.79 0.84 0.93 0.96 1.00 1.12 1.29 1.41 1.44 1.46 1.48 1.48 1.55 1.64 1.69 1.64
0.96 1.08 1.32 0.89 0.65 1.06 0.79 0.44 0.45 0.51 0.56 0.55 0.54 0.48 0.45 0.45 0.47 0.46 0.47 0.55 0.60 0.61 0.60 0.60 0.65 0.68 0.68 0.72 0.80 0.84 0.86 0.91 0.95 1.05 1.21 1.38 1.40 1.40 1.39 1.40 1.44 1.51 1.58 1.60
0.60 1.07 1.57 1.28 0.94 0.67 0.44 0.32 0.46 0.57 0.60 0.55 0.47 0.39 0.37 0.37 0.37 0.40 0.41 0.45 0.54 0.59 0.60 0.62 0.67 0.70 0.67 0.68 0.76 0.82 0.85 0.88 0.95 1.08 1.19 1.33 1.41 1.39 1.35 1.37 1.39 1.40 1.40 1.47
0.71 1.15 1.76 1.49 1.13 0.69 0.46 0.24 0.30 0.50 0.68 0.45 0.39 0.38 0.37 0.39 0.49 0.46 0.40 0.38 0.43 0.46 0.51 0.59 0.62 0.62 0.61 0.65 0.70 0.76 0.83 0.85 0.93 1.10 1.21 1.27 1.33 1.35 1.32 1.32 1.36 1.33 1.28 1.30
1.05 1.58 1.74 1.26 1.03 0.52 0.31 0.20 0.26 0.64 0.75 0.40 0.36 0.38 0.39 0.51 0.59 0.49 0.40 0.39 0.41 0.45 0.49 0.53 0.56 0.57 0.61 0.64 0.67 0.71 0.78 0.87 0.92 1.02 1.10 1.17 1.23 1.27 1.22 1.25 1.26 1.26 1.25 1.23
0.78 1.08 1.10 1.03 1.14 0.63 0.28 0.28 0.57 0.70 0.37 0.30 0.29 0.30 0.34 0.37 0.36 0.35 0.37 0.39 0.43 0.47 0.48 0.50 0.53 0.54 0.56 0.60 0.61 0.66 0.76 0.85 0.88 0.89 0.93 1.05 1.16 1.18 1.13 1.19 1.18 1.15 1.20 1.22
0.63 0.87 0.91 0.85 0.75 0.51 0.38 0.46 0.49 0.42 0.35 0.27 0.28 0.27 0.30 0.33 0.35 0.36 0.39 0.41 0.45 0.47 0.49 0.50 0.51 0.49 0.52 0.57 0.59 0.65 0.72 0.77 0.87 0.86 0.88 0.96 1.06 1.13 1.13 1.16 1.15 1.15 1.14 1.16
0.46 0.50 0.65 0.58 0.44 0.37 0.35 0.33 0.29 0.27 0.30 0.27 0.28 0.30 0.32 0.35 0.36 0.39 0.39 0.42 0.47 0.51 0.52 0.53 0.51 0.51 0.55 0.59 0.60 0.65 0.70 0.75 0.83 0.85 0.87 0.92 1.00 1.11 1.12 1.13 1.14 1.15 1.17 1.24
0.39 0.41 0.50 0.47 0.35 0.28 0.24 0.24 0.26 0.23 0.22 0.22 0.23 0.26 0.31 0.34 0.36 0.39 0.42 0.46 0.50 0.53 0.54 0.52 0.50 0.52 0.56 0.58 0.60 0.62 0.66 0.72 0.80 0.82 0.83 0.88 0.94 1.08 1.13 1.16 1.19 1.19 1.17 1.33
0.30 0.38 0.47 0.42 0.32 0.37 0.29 0.24 0.25 0.26 0.24 0.24 0.26 0.26 0.27 0.31 0.36 0.39 0.46 0.49 0.50 0.51 0.50 0.48 0.48 0.50 0.56 0.57 0.60 0.62 0.65 0.70 0.77 0.81 0.83 0.85 0.91 1.04 1.07 1.11 1.20 1.25 1.23 1.25